Weather History for Silver Bay, MN

Change the Weather History Date:

Thursday, June 27, 2013

  Actual Average Record
Temperature  
Mean Temperature 66 °F -  
Max Temperature 80 °F 70 °F 84 °F (1997)
Min Temperature 53 °F 46 °F 39 °F (2004)
Cooling Degree Days 2    
Growing Degree Days 16 (Base 50)    
Moisture  
Dew Point 54 °F    
Average Humidity 66    
Maximum Humidity 94    
Minimum Humidity 34    
Precipitation  
Precipitation 0.38 in - - ()
Sea Level Pressure  
Sea Level Pressure 29.71 in    
Wind  
Wind Speed 1 mph (WNW)    
Max Wind Speed 10 mph    
Max Gust Speed 20 mph    
Visibility 9 miles    
Events Fog , Rain , Thunderstorm    
Averages and records for this station are not official NWS values.
T = Trace of Precipitation, MM = Missing Value Source: NWS Daily Summary

Daily Weather History Graph

Daily Weather History Graph

Search for Another Location

Airport:

Trip Planner

Search our weather history database for the weather conditions in past years. The results will help you decide how hot, cold, wet, or windy it might be!

Date:

Astronomy

Jun. 27, 2013 Rise Set
Actual Time 5:11 AM CDT 9:05 PM CDT
Civil Twilight 4:31 AM CDT 9:45 PM CDT
Nautical Twilight 3:36 AM CDT 10:40 PM CDT
Astronomical Twilight 2:12 AM CDT 12:04 AM CDT
Moon 11:39 PM CDT (6/27) 10:34 AM CDT (6/27)
Length of Visible Light 17h 14m
Length of Day
15h 54m
Waning Gibbous, 76% of the Moon is Illuminated
Jun 27
Waning Gibbous
Jun 29
Last Quarter
Jul 8
New
Jul 15
First Quarter
Jul 22
Full

Hourly Weather History & Observations

Time (CDT) Temp. Heat Index Dew Point Humidity Pressure Visibility Wind Dir Wind Speed Gust Speed Precip Events Conditions
12:13 AM 57.2 °F - 53.6 °F 88% 29.75 in 0.2 mi Calm Calm - N/A Fog Fog
12:33 AM 55.4 °F - 53.6 °F 94% 29.74 in 0.2 mi Calm Calm - N/A Fog Fog
12:53 AM 55.4 °F - 53.6 °F 94% 29.74 in 1.0 mi Calm Calm - N/A   Mostly Cloudy
1:13 AM 55.4 °F - 53.6 °F 94% 29.74 in 1.5 mi Calm Calm - N/A   Overcast
1:33 AM 57.2 °F - 53.6 °F 88% 29.75 in 0.5 mi Calm Calm - N/A Fog Fog
1:53 AM 57.2 °F - 53.6 °F 88% 29.74 in 0.5 mi Calm Calm - N/A Fog Fog
2:13 AM 57.2 °F - 53.6 °F 88% 29.74 in 0.2 mi Calm Calm - N/A Fog Fog
2:33 AM 55.4 °F - 51.8 °F 88% 29.74 in 0.8 mi Calm Calm - N/A   Mostly Cloudy
2:53 AM 55.4 °F - 51.8 °F 88% 29.73 in 1.0 mi Calm Calm - N/A   Mostly Cloudy
3:13 AM 53.6 °F - 51.8 °F 94% 29.73 in 7.0 mi Calm Calm - N/A   Clear
3:33 AM 53.6 °F - 50.0 °F 88% 29.73 in 7.0 mi Calm Calm - N/A   Clear
3:53 AM 53.6 °F - 50.0 °F 88% 29.73 in 10.0 mi Calm Calm - N/A   Clear
4:13 AM 55.4 °F - 53.6 °F 94% 29.72 in 10.0 mi Calm Calm - N/A   Clear
4:33 AM 55.4 °F - 51.8 °F 88% 29.73 in 10.0 mi Calm Calm - N/A   Clear
4:53 AM 60.8 °F - 57.2 °F 88% 29.74 in 10.0 mi Calm Calm - N/A   Clear
5:13 AM 62.6 °F - 57.2 °F 82% 29.74 in 10.0 mi Calm Calm - N/A Rain Light Rain
5:33 AM 62.6 °F - 55.4 °F 77% 29.76 in 10.0 mi West 6.9 mph - 0.01 in Rain , Thunderstorm Light Thunderstorms and Rain
5:53 AM 62.6 °F - 55.4 °F 77% 29.73 in 10.0 mi Calm Calm - N/A Rain Light Rain
6:13 AM 60.8 °F - 53.6 °F 77% 29.75 in 10.0 mi Calm Calm - N/A   Clear
6:33 AM 60.8 °F - 53.6 °F 77% 29.74 in 10.0 mi Calm Calm - N/A   Clear
6:53 AM 64.4 °F - 53.6 °F 68% 29.73 in 10.0 mi Calm Calm - N/A   Clear
7:13 AM 66.2 °F - 53.6 °F 64% 29.72 in 10.0 mi Calm Calm - N/A   Clear
7:33 AM 69.8 °F - 53.6 °F 56% 29.72 in 10.0 mi Calm Calm - N/A   Clear
7:53 AM 71.6 °F - 53.6 °F 53% 29.71 in 10.0 mi Calm Calm - N/A   Clear
8:14 AM 71.6 °F - 55.4 °F 57% 29.71 in 10.0 mi Calm Calm - N/A   Clear
8:33 AM 73.4 °F - 57.2 °F 57% 29.71 in 10.0 mi Calm Calm - N/A   Clear
8:53 AM 75.2 °F - 55.4 °F 50% 29.71 in 10.0 mi Calm Calm - N/A   Clear
9:13 AM 75.2 °F - 53.6 °F 47% 29.71 in 10.0 mi Calm Calm - N/A   Clear
9:33 AM 73.4 °F - 55.4 °F 53% 29.71 in 10.0 mi WNW 3.5 mph - N/A   Clear
9:53 AM 75.2 °F - 55.4 °F 50% 29.71 in 10.0 mi NW 3.5 mph - N/A   Clear
10:14 AM 75.2 °F - 55.4 °F 50% 29.70 in 10.0 mi WNW 5.8 mph - N/A   Clear
10:33 AM 73.4 °F - 55.4 °F 53% 29.70 in 10.0 mi Calm Calm - N/A   Clear
10:53 AM 75.2 °F - 55.4 °F 50% 29.70 in 10.0 mi WNW 4.6 mph - N/A   Clear
11:13 AM 75.2 °F - 55.4 °F 50% 29.70 in 10.0 mi Calm Calm - N/A   Clear
11:33 AM 77.0 °F - 55.4 °F 47% 29.69 in 10.0 mi Calm Calm - N/A   Clear
11:53 AM 78.8 °F - 53.6 °F 42% 29.69 in 10.0 mi Calm Calm - N/A   Clear
12:13 PM 78.8 °F - 53.6 °F 42% 29.69 in 10.0 mi Calm Calm - N/A   Clear
12:33 PM 78.8 °F - 51.8 °F 39% 29.69 in 10.0 mi WNW 5.8 mph - N/A   Clear
12:53 PM 80.6 °F - 51.8 °F 37% 29.68 in 10.0 mi Calm Calm - N/A   Clear
1:13 PM 78.8 °F - 48.2 °F 34% 29.67 in 10.0 mi WNW 4.6 mph - N/A   Scattered Clouds
1:33 PM 75.2 °F - 50.0 °F 41% 29.69 in 10.0 mi West 5.8 mph - N/A Thunderstorm Thunderstorm
1:54 PM 71.6 °F - 51.8 °F 50% 29.69 in 10.0 mi Calm Calm - N/A Thunderstorm Clear
2:13 PM 78.8 °F - 53.6 °F 42% 29.67 in 10.0 mi Calm Calm - N/A   Clear
2:33 PM 80.6 °F 80.3 °F 53.6 °F 39% 29.67 in 10.0 mi WSW 3.5 mph - N/A   Clear
2:53 PM 75.2 °F - 51.8 °F 44% 29.68 in 10.0 mi NW 6.9 mph - N/A Thunderstorm Thunderstorm
3:13 PM 66.2 °F - 55.4 °F 68% 29.70 in 5.0 mi WSW 10.4 mph 17.3 mph 0.19 in Rain , Thunderstorm Heavy Thunderstorms and Rain
3:33 PM 69.8 °F - 60.8 °F 73% 29.68 in 10.0 mi Calm Calm - 0.20 in Thunderstorm Scattered Clouds
3:53 PM 71.6 °F - 60.8 °F 69% 29.67 in 10.0 mi Calm Calm - N/A Rain Light Rain
4:13 PM 73.4 °F - 62.6 °F 69% 29.67 in 10.0 mi Calm Calm - N/A   Clear
4:33 PM 73.4 °F - 60.8 °F 65% 29.67 in 10.0 mi Calm Calm - N/A   Clear
4:53 PM 75.2 °F - 59.0 °F 57% 29.67 in 10.0 mi West 3.5 mph - N/A   Scattered Clouds
5:13 PM 69.8 °F - 57.2 °F 64% 29.69 in 10.0 mi Calm Calm - 0.05 in Thunderstorm Thunderstorm
5:33 PM 71.6 °F - 59.0 °F 64% 29.68 in 10.0 mi Calm Calm - 0.05 in Thunderstorm Thunderstorm
5:53 PM 75.2 °F - 57.2 °F 53% 29.67 in 10.0 mi West 4.6 mph - N/A   Clear
6:13 PM 75.2 °F - 51.8 °F 44% 29.68 in 10.0 mi WNW 6.9 mph 19.6 mph N/A   Clear
6:33 PM 77.0 °F - 50.0 °F 39% 29.68 in 10.0 mi WNW 3.5 mph 17.3 mph N/A   Clear
6:53 PM 77.0 °F - 50.0 °F 39% 29.68 in 10.0 mi WNW 8.1 mph 18.4 mph N/A   Clear
7:13 PM 75.2 °F - 50.0 °F 41% 29.69 in 10.0 mi Calm Calm - N/A   Scattered Clouds
7:33 PM 75.2 °F - 50.0 °F 41% 29.69 in 10.0 mi Calm Calm - N/A   Clear
7:53 PM 71.6 °F - 51.8 °F 50% 29.68 in 10.0 mi Calm Calm - N/A   Clear
8:13 PM 71.6 °F - 51.8 °F 50% 29.68 in 10.0 mi Calm Calm - N/A   Clear
8:33 PM 66.2 °F - 55.4 °F 68% 29.69 in 10.0 mi Calm Calm - N/A   Clear
8:53 PM 64.4 °F - 55.4 °F 73% 29.69 in 10.0 mi Calm Calm - N/A   Mostly Cloudy
9:13 PM 66.2 °F - 53.6 °F 64% 29.70 in 7.0 mi Calm Calm - 0.01 in Rain Rain
9:33 PM 62.6 °F - 55.4 °F 77% 29.70 in 10.0 mi Calm Calm - 0.01 in   Scattered Clouds
9:53 PM 60.8 °F - 55.4 °F 82% 29.71 in 10.0 mi Calm Calm - N/A   Scattered Clouds
10:13 PM 60.8 °F - 55.4 °F 82% 29.72 in 7.0 mi Calm Calm - 0.03 in Rain Light Rain
10:33 PM 60.8 °F - 57.2 °F 88% 29.71 in 7.0 mi Calm Calm - 0.06 in Rain Light Rain
10:53 PM 62.6 °F - 57.2 °F 82% 29.71 in 10.0 mi Calm Calm - 0.02 in Rain Rain
11:13 PM 60.8 °F - 57.2 °F 88% 29.70 in 10.0 mi Calm Calm - 0.05 in Rain Light Rain
11:33 PM 60.8 °F - 57.2 °F 88% 29.69 in 10.0 mi Calm Calm - 0.05 in   Scattered Clouds
11:53 PM 59.0 °F - 55.4 °F 88% 29.69 in 10.0 mi Calm Calm - N/A   Clear